Flag for United Kingdom Weather past 2 weeks in Brentwood, England, United Kingdom

Now
50 °F

Cool.


Feels Like: 47 °F
Forecast: 37 / 52 °F
Wind: 7 mph from North

Location: Gravesend-Broadness

Current Time: Apr 26, 2015 at 6:33:26 AM

Latest Report: Apr 26, 2015 at 5:00 AM


Visibility: N/A

Pressure: 29.69 "Hg

Humidity: 94%

Dew point: 48 °F

Location of BrentwoodLocation

Historic Weather in Brentwood — Graph

°F

Brentwood temperature yesterday

Maximum temperature yesterday: 66 °F (at 3:00 PM)
Minimum temperature yesterday: 52 °F (at 6:00 AM)
Average temperature yesterday: 57 °F

Past Weeks' High & Low Weather Summary

 TemperatureHumidityPressure
High76 °F (Apr 15, 4:00 PM)97% (Apr 24, 7:00 AM)30.55 "Hg (Apr 24, 7:00 AM)
Low36 °F (Apr 24, 5:00 AM)30% (Apr 15, 1:00 PM)29.66 "Hg (Apr 25, 5:00 PM)
Average52 °F70%30.18 "Hg
* Reported Apr 11 5:00 AM — Apr 26 5:00 AM, Brentwood, Weather by CustomWeather, © 2015

Note: Actual official high and low records may vary slightly from our data, if they occured in-between our weather recording intervals... More about our weather records

Advertising

Brentwood weather history for previous 24 hours

 ConditionsComfort  
Time TempWeatherWind HumidityBarometerVisibility
5:00 AM
Sun, Apr 26
50 °FCool.7 mph94%29.69 "HgN/A
4:00 AM52 °FCool.6 mph94%29.69 "HgN/A
3:00 AM53 °FCool.5 mph92%29.69 "HgN/A
2:00 AM52 °FCool.2 mph91%29.70 "HgN/A
1:00 AM52 °FCool.6 mph90%29.70 "HgN/A
12:00 AM53 °FCool.5 mph89%29.70 "HgN/A
11:00 PM
Sat, Apr 25
53 °FCool.6 mph88%29.70 "HgN/A
10:00 PM55 °FCool.9 mph80%29.70 "HgN/A
9:00 PM56 °FCool.8 mph76%29.70 "HgN/A
8:00 PM57 °FCool.12 mph71%29.68 "HgN/A
7:00 PM59 °FCool.13 mph63%29.67 "HgN/A
6:00 PM62 °FRefreshingly cool.13 mph56%29.66 "HgN/A
5:00 PM64 °FMild.10 mph53%29.66 "HgN/A
4:00 PM63 °FMild.12 mph53%29.66 "HgN/A
3:00 PM66 °FMild.14 mph48%29.66 "HgN/A
2:00 PM64 °FMild.15 mph54%29.68 "HgN/A
1:00 PM61 °FCool.14 mph64%29.69 "HgN/A
12:00 PM59 °FCool.12 mph71%29.70 "HgN/A
11:00 AM56 °FCool.9 mph86%29.70 "HgN/A
10:00 AM55 °FCool.10 mph89%29.69 "HgN/A
9:00 AM53 °FCool.9 mph91%29.69 "HgN/A
8:00 AM53 °FCool.8 mph91%29.69 "HgN/A
7:00 AM52 °FCool.8 mph92%29.69 "HgN/A
6:00 AM52 °FCool.8 mph92%29.69 "HgN/A
Weather by CustomWeather, © 2015

See weather overviewHow to use our weather pages